sat.trackr.live / text

‹ back to catalog

ONEWEB-0422

NORAD 51626 · 2022-012E

PAYLOAD ACTIVE UNKNOWN

§ Identity

Operator
Country
UK
Launch date
2022-02-10
Launch site
FRGUI
Launch vehicle
Mass (kg)
RCS (m²)

Purposes: comms

External: N2YO · Heavens-Above · Gunter

§ Orbital elements

Epoch: 2026-09-19T23:53:52.286784Z

Period
109.29 min
Inclination
87.9201°
Eccentricity
0.0001967
Mean motion
13.17647896 rev/d
Perigee alt
1,192.2 km
Apogee alt
1,195.2 km
Semi-major
7,571.9 km
B*
5.5719e-5
RAAN
347.0345°
Arg perigee
82.6479°
Mean anomaly
277.4876°
Rev number
22,629

§ Raw data

ONEWEB-04221 51626U 22012E   26262.99574406  .00000035  00000+0  55719-4 0  99972 51626  87.9201 347.0345 0001967  82.6479 277.4876 13.17647896226298

JSON: /api/v1/satellites/51626 · /tle

For live sub-satellite position, see the globe view (requires WebGL).

§ Visibility from observer

Set your observer location to see the next 7 days of passes ≥ 10°. The values pass through the URL so the page stays shareable.

No JS? Fill the form by hand. The geolocation button needs JavaScript.